ONEWEB-0018 (45434 NORAD) Tracking and Keplerian Element Data

This shows tracking and keplerian element data for the satellite.

Feedback or suggestion? Click here.




ElementValue
Catalog45434
NameONEWEB-0018
Epoch Orbit89
Epoch Day87.56585804
Epoch Year2020
RAAN136.8351
Inclination87.3979
Eccentricity0.0021646
Argument of Perigee288.6535
Mean Anonmoly71.2368
Mean Motion15.37162402
Decay Rate2.115E-05
L11 45434U 20020L 20087.56585804 .00002115 00000-0 56572-4 0 9990
L22 45434 87.3979 136.8351 0021646 288.6535 71.2368 15.37162402 893

Live tracking and technical data element details for ONEWEB-0018 (NORAD 45434). ONEWEB-0018 can be tracked NOW for your location showing map with azimuth and elevation plus other details from your city location.

Track the satellite on the map from your city or location and see movement details for azimuth, elevation, latitude, longitude, range, height, and movement on the map or in text.







IsCatalogInMostPopularTable: catalog: 45434, numindb: -1

Insert: records affected: 1


GetName: 45434 ONEWEB-0018

Hit Count: inserted at: Tue, 31 Mar 2020 13:51:20 GMT